Regional Weather Roundup
Issued by NWS

Home | Current Version | Previous Version | Text Only | Print | Product List | Glossary Off
Versions: 1 2 3 4 5 6 7 8 9 10 11 12 13 14 15 16 17 18 19 20 21 22 23 24 25 26 27 28 29 30 31 32 33 34 35 36 37 38 39 40 41 42 43 44 45 46 47 48 49 50

000
ASUS43 KTOP 281559
RWRKS

WEATHER ROUNDUP FOR KANSAS
NATIONAL WEATHER SERVICE GOODLAND KS
1100 AM CDT THU JUL 28 2016

NOTE:  "FAIR" INDICATES FEW OR NO CLOUDS BELOW 12,000 FEET WITH NO
SIGNIFICANT WEATHER AND/OR OBSTRUCTIONS TO VISIBILITY.

KSZ001>006-013>018-027>032-041>047-281700-
NORTHWEST KANSAS

CITY           SKY/WX    TMP DP  RH WIND       PRES   REMARKS
GOODLAND       TSTM      64  61  90 NE26G39   30.13R FOG
HAYS           SUNNY     82  63  51 NE10      30.02F
HILL CITY      SUNNY     80  66  62 E9        30.04F
RUSSELL        SUNNY     82  68  62 NE8       30.01F
$$

KSZ061>065-074>080-084>089-281700-
SOUTHWEST KANSAS

CITY           SKY/WX    TMP DP  RH WIND       PRES   REMARKS
DODGE CITY     PTSUNNY   78  65  63 E8        30.04S
ELKHART          N/A     76  61  60 MISG        N/A
GARDEN CITY    SUNNY     77  65  66 S5        30.04F
GREAT BEND     MOSUNNY   81  64  57 E9        30.01S
LIBERAL        CLOUDY    81  63  54 S7        30.09F
$$

KSZ066>073-081>083-090>101-281700-
SOUTHEAST KANSAS

CITY           SKY/WX    TMP DP  RH WIND       PRES   REMARKS
CHANUTE        TSTM      74  67  78 SE6       29.99F
COFFEYVILLE    MOSUNNY   89  75  63 N9        29.96S HX  99
HUTCHINSON     MOSUNNY   86  70  58 VRB7      30.00F
NEWTON         MOSUNNY   82  72  71 E7        30.01S
PARSONS        CLOUDY    76  67  73 NE10G20   30.02R
WICHITA INTL   MOSUNNY   89  71  55 VRB3      29.98R HX  95
WICHITA JABRA  MOSUNNY   87  75  67 NE5       29.99R HX  96
WINFIELD       MOSUNNY   89  72  56 CALM      29.98R HX  96
$$

KSZ007>012-019>026-033>040-048>060-102>105-281700-
NORTHEAST KANSAS

CITY           SKY/WX    TMP DP  RH WIND       PRES   REMARKS
CONCORDIA      SUNNY     82  68  62 N6        30.03F
EMPORIA        MOSUNNY   83  71  67 NE9       29.98F
LAWRENCE       MOSUNNY   84  71  65 N8        29.97F
MANHATTAN      MOSUNNY   84  71  65 N3        29.99F
OLATHE IND     PTSUNNY   83  71  67 N9        29.99S
OLATHE EXE     PTSUNNY   84  69  60 N10       29.98S
SALINA         CLOUDY    86  69  56 NE7       30.00F
TOPEKA BILLARD   N/A     83  71  67 NE9       29.98F
TOPEKA FORBES  MOSUNNY   85  70  60 N10       29.98F
$$



USA.gov is the U.S. government's official web portal to all federal, state and local government web resources and services.